JST410 YSSY-YBCG

Flight info

Callsign JST410
Flight time 0h 58m
Altitude 35000
Route OLSEM Y193 BANDA Y43 GOMOL
Aircraft A320/M-SDE3FGHIRWY/LB1

Departure

Time 2026-05-04 03:44
Airport Sydney Kingsford Smith International Airport (YSSY)

Arrival

Time 2026-05-04 04:43
Airport Gold Coast Airport (YBCG)
Time Latitude Longitude Altitude Speed Heading
2026-05-04 03:20 -33.93524 151.17764 30 ft 0 kts 279°
2026-05-04 03:33 -33.93526 151.17778 30 ft 4 kts 276°
2026-05-04 03:33 -33.93526 151.17810 30 ft 4 kts 259°
2026-05-04 03:33 -33.93517 151.17836 30 ft 4 kts 210°
2026-05-04 03:34 -33.93509 151.17841 30 ft 0 kts 190°
2026-05-04 03:36 -33.93519 151.17839 30 ft 9 kts 190°
2026-05-04 03:36 -33.93665 151.17806 30 ft 28 kts 193°
2026-05-04 03:37 -33.93846 151.17766 30 ft 25 kts 172°
2026-05-04 03:37 -33.94010 151.17808 29 ft 23 kts 167°
2026-05-04 03:37 -33.94158 151.17847 30 ft 20 kts 168°
2026-05-04 03:37 -33.94287 151.17879 30 ft 18 kts 168°
2026-05-04 03:38 -33.94398 151.17908 30 ft 15 kts 169°
2026-05-04 03:38 -33.94498 151.17884 30 ft 14 kts 192°
2026-05-04 03:38 -33.94610 151.17906 30 ft 21 kts 168°
2026-05-04 03:38 -33.94773 151.17946 30 ft 24 kts 168°
2026-05-04 03:39 -33.94924 151.17985 30 ft 21 kts 168°
2026-05-04 03:39 -33.95056 151.18020 30 ft 18 kts 165°
2026-05-04 03:39 -33.95091 151.18139 30 ft 19 kts 80°
2026-05-04 03:39 -33.95056 151.18345 30 ft 25 kts 78°
2026-05-04 03:40 -33.95076 151.18507 30 ft 17 kts 147°
2026-05-04 03:40 -33.95168 151.18602 30 ft 23 kts 137°
2026-05-04 03:40 -33.95303 151.18714 30 ft 23 kts 161°
2026-05-04 03:40 -33.95451 151.18754 30 ft 21 kts 168°
2026-05-04 03:41 -33.95636 151.18803 30 ft 34 kts 168°
2026-05-04 03:41 -33.95862 151.18861 30 ft 32 kts 168°
2026-05-04 03:41 -33.96068 151.18914 30 ft 29 kts 168°
2026-05-04 03:41 -33.96259 151.18964 30 ft 27 kts 168°
2026-05-04 03:42 -33.96434 151.19009 30 ft 25 kts 168°
2026-05-04 03:42 -33.96594 151.19051 30 ft 22 kts 167°
2026-05-04 03:42 -33.96738 151.19071 30 ft 20 kts 186°
2026-05-04 03:42 -33.96881 151.19083 30 ft 28 kts 169°
2026-05-04 03:43 -33.97068 151.19129 30 ft 18 kts 167°
2026-05-04 03:43 -33.97125 151.19205 30 ft 11 kts 89°
2026-05-04 03:43 -33.97111 151.19281 28 ft 5 kts 75°
2026-05-04 03:43 -33.97091 151.19356 28 ft 13 kts 52°
2026-05-04 03:44 -33.96907 151.19332 24 ft 55 kts 348°
2026-05-04 03:44 -33.96330 151.19183 28 ft 111 kts 348°
2026-05-04 03:44 -33.95438 151.18952 55 ft 147 kts 347°
2026-05-04 03:44 -33.94474 151.18740 742 ft 140 kts 351°
2026-05-04 03:45 -33.93486 151.18829 1265 ft 148 kts 15°
2026-05-04 03:45 -33.92548 151.19399 1783 ft 159 kts 32°
2026-05-04 03:45 -33.91591 151.20238 2054 ft 181 kts 32°
2026-05-04 03:45 -33.90665 151.21398 2338 ft 207 kts 54°
2026-05-04 03:46 -33.89810 151.22916 2628 ft 231 kts 50°
2026-05-04 03:46 -33.88759 151.24505 3041 ft 254 kts 46°
2026-05-04 03:46 -33.87403 151.25880 3770 ft 257 kts 23°
2026-05-04 03:46 -33.85748 151.26672 4693 ft 256 kts 15°
2026-05-04 03:47 -33.84073 151.27418 5629 ft 258 kts 16°
2026-05-04 03:47 -33.82380 151.28168 6509 ft 261 kts 16°
2026-05-04 03:47 -33.80663 151.28928 7334 ft 264 kts 16°
2026-05-04 03:47 -33.78926 151.29696 8142 ft 268 kts 15°
2026-05-04 03:48 -33.77161 151.30476 8942 ft 272 kts 15°
2026-05-04 03:48 -33.75368 151.31268 9728 ft 276 kts 15°
2026-05-04 03:48 -33.73538 151.32075 10295 ft 288 kts 15°
2026-05-04 03:48 -33.71583 151.32929 10505 ft 311 kts 15°
2026-05-04 03:49 -33.69525 151.33830 10878 ft 324 kts 17°
2026-05-04 03:49 -33.67385 151.34778 11465 ft 331 kts 17°
2026-05-04 03:49 -33.65213 151.35743 12136 ft 335 kts 17°
2026-05-04 03:49 -33.63017 151.36716 12819 ft 338 kts 17°
2026-05-04 03:50 -33.60797 151.37697 13500 ft 341 kts 17°
2026-05-04 03:50 -33.58560 151.38683 14129 ft 344 kts 17°
2026-05-04 03:50 -33.56301 151.39677 14707 ft 347 kts 17°
2026-05-04 03:50 -33.54021 151.40677 15279 ft 350 kts 16°
2026-05-04 03:51 -33.51722 151.41689 15853 ft 354 kts 17°
2026-05-04 03:51 -33.49402 151.42709 16421 ft 357 kts 16°
2026-05-04 03:51 -33.47055 151.43740 16952 ft 361 kts 16°
2026-05-04 03:51 -33.44682 151.44782 17502 ft 365 kts 16°
2026-05-04 03:52 -33.42280 151.45836 18051 ft 369 kts 16°
2026-05-04 03:52 -33.39856 151.46896 18580 ft 373 kts 15°
2026-05-04 03:52 -33.37411 151.47964 19097 ft 375 kts 15°
2026-05-04 03:52 -33.34950 151.49040 19638 ft 378 kts 15°
2026-05-04 03:53 -33.32470 151.50127 20173 ft 381 kts 15°
2026-05-04 03:53 -33.29976 151.51222 20682 ft 383 kts 15°
2026-05-04 03:53 -33.27462 151.52324 21163 ft 386 kts 14°
2026-05-04 03:53 -33.24961 151.53414 21575 ft 390 kts 14°
2026-05-04 03:54 -33.22398 151.54527 22009 ft 394 kts 14°
2026-05-04 03:54 -33.19815 151.55652 22464 ft 397 kts 14°
2026-05-04 03:54 -33.17214 151.56787 22923 ft 399 kts 14°
2026-05-04 03:54 -33.14595 151.57931 23386 ft 402 kts 14°
2026-05-04 03:55 -33.11956 151.59081 23798 ft 405 kts 14°
2026-05-04 03:55 -33.09296 151.60240 24197 ft 406 kts 13°
2026-05-04 03:55 -33.06635 151.61399 24606 ft 408 kts 13°
2026-05-04 03:55 -33.03962 151.62561 24962 ft 410 kts 13°
2026-05-04 03:56 -33.01273 151.63727 25373 ft 412 kts 12°
2026-05-04 03:56 -32.98574 151.64893 25805 ft 412 kts 12°
2026-05-04 03:56 -32.95873 151.66059 26234 ft 413 kts 12°
2026-05-04 03:56 -32.93169 151.67230 26653 ft 414 kts 12°
2026-05-04 03:57 -32.90457 151.68402 27070 ft 415 kts 11°
2026-05-04 03:57 -32.87739 151.69577 27482 ft 416 kts 11°
2026-05-04 03:57 -32.85020 151.70755 27887 ft 417 kts 11°
2026-05-04 03:57 -32.82285 151.71940 28241 ft 419 kts 11°
2026-05-04 03:58 -32.76788 151.74316 29017 ft 422 kts 11°
2026-05-04 03:58 -32.74055 151.75495 29404 ft 423 kts 11°
2026-05-04 03:58 -32.71285 151.76691 29793 ft 424 kts 11°
2026-05-04 03:59 -32.68504 151.77891 30168 ft 426 kts 10°
2026-05-04 03:59 -32.65714 151.79093 30483 ft 427 kts 10°
2026-05-04 03:59 -32.62923 151.80291 30866 ft 427 kts
2026-05-04 03:59 -32.60130 151.81489 31208 ft 427 kts
2026-05-04 04:00 -32.57331 151.82691 31558 ft 428 kts
2026-05-04 04:00 -32.54528 151.83895 31921 ft 428 kts
2026-05-04 04:00 -32.51721 151.85095 32274 ft 429 kts
2026-05-04 04:00 -32.48911 151.86295 32632 ft 429 kts
2026-05-04 04:01 -32.46101 151.87501 33006 ft 430 kts
2026-05-04 04:01 -32.43284 151.88712 33367 ft 431 kts
2026-05-04 04:01 -32.40464 151.89925 33704 ft 432 kts
2026-05-04 04:01 -32.37634 151.91137 34040 ft 433 kts
2026-05-04 04:02 -32.34799 151.92350 34342 ft 434 kts
2026-05-04 04:02 -32.31997 151.93547 34645 ft 434 kts
2026-05-04 04:02 -32.29124 151.94772 34926 ft 434 kts
2026-05-04 04:02 -32.26265 151.95988 35018 ft 439 kts
2026-05-04 04:03 -32.20462 151.98435 35039 ft 454 kts
2026-05-04 04:03 -32.14429 152.00991 35031 ft 465 kts
2026-05-04 04:04 -32.08337 152.03598 35034 ft 466 kts
2026-05-04 04:04 -32.02238 152.06201 35034 ft 466 kts
2026-05-04 04:05 -31.96142 152.08790 35025 ft 466 kts
2026-05-04 04:05 -31.90021 152.11373 35035 ft 467 kts
2026-05-04 04:06 -31.83902 152.13950 35040 ft 467 kts
2026-05-04 04:06 -31.77772 152.16534 35046 ft 468 kts
2026-05-04 04:07 -31.71648 152.19122 35009 ft 468 kts
2026-05-04 04:07 -31.65519 152.21711 35020 ft 468 kts
2026-05-04 04:08 -31.59375 152.24290 35036 ft 469 kts
2026-05-04 04:08 -31.53221 152.26866 35022 ft 470 kts
2026-05-04 04:09 -31.47063 152.29450 35033 ft 471 kts
2026-05-04 04:09 -31.40889 152.32030 35044 ft 471 kts
2026-05-04 04:10 -31.34714 152.34602 35054 ft 471 kts
2026-05-04 04:10 -31.28536 152.37172 35042 ft 471 kts
2026-05-04 04:11 -31.22359 152.39750 35043 ft 471 kts
2026-05-04 04:11 -31.16219 152.42313 35054 ft 472 kts
2026-05-04 04:12 -31.10034 152.44882 35057 ft 472 kts
2026-05-04 04:12 -31.03845 152.47442 35046 ft 472 kts
2026-05-04 04:13 -30.97655 152.50005 35061 ft 472 kts
2026-05-04 04:13 -30.91456 152.52566 35070 ft 472 kts
2026-05-04 04:14 -30.85256 152.55136 35050 ft 473 kts
2026-05-04 04:14 -30.80098 152.57271 35060 ft 474 kts
2026-05-04 04:15 -30.73913 152.59997 35065 ft 477 kts 11°
2026-05-04 04:15 -30.67755 152.62924 35074 ft 479 kts 11°
2026-05-04 04:16 -30.61582 152.65854 35047 ft 478 kts 11°
2026-05-04 04:16 -30.55408 152.68721 35063 ft 478 kts 11°
2026-05-04 04:17 -30.49217 152.71559 35067 ft 478 kts 11°
2026-05-04 04:17 -30.43018 152.74402 35082 ft 479 kts 11°
2026-05-04 04:18 -30.36817 152.77261 35079 ft 480 kts 11°
2026-05-04 04:18 -30.30657 152.80107 35088 ft 479 kts 11°
2026-05-04 04:19 -30.24461 152.82952 35108 ft 479 kts 11°
2026-05-04 04:19 -30.18262 152.85792 35097 ft 479 kts 11°
2026-05-04 04:20 -30.12054 152.88636 35073 ft 480 kts 11°
2026-05-04 04:20 -30.05840 152.91482 35067 ft 480 kts 11°
2026-05-04 04:21 -29.99571 152.94344 35089 ft 482 kts 11°
2026-05-04 04:21 -29.93376 152.97169 35078 ft 482 kts 11°
2026-05-04 04:22 -29.87140 153.00016 35088 ft 482 kts 11°
2026-05-04 04:22 -29.80896 153.02851 35096 ft 482 kts 11°
2026-05-04 04:23 -29.74660 153.05684 35097 ft 482 kts 11°
2026-05-04 04:23 -29.68420 153.08515 34958 ft 482 kts 11°
2026-05-04 04:24 -29.65299 153.09930 33901 ft 483 kts 11°
2026-05-04 04:24 -29.62169 153.11343 32578 ft 482 kts 12°
2026-05-04 04:24 -29.59051 153.12753 31456 ft 480 kts 12°
2026-05-04 04:24 -29.55941 153.14164 30958 ft 481 kts 13°
2026-05-04 04:25 -29.52824 153.15576 30401 ft 482 kts 13°
2026-05-04 04:25 -29.49694 153.16989 29795 ft 483 kts 13°
2026-05-04 04:25 -29.46560 153.18401 29230 ft 484 kts 13°
2026-05-04 04:25 -29.43423 153.19810 28713 ft 485 kts 14°
2026-05-04 04:26 -29.40276 153.21225 28165 ft 485 kts 14°
2026-05-04 04:26 -29.37134 153.22639 27648 ft 487 kts 14°
2026-05-04 04:26 -29.33979 153.24059 27122 ft 488 kts 15°
2026-05-04 04:26 -29.30853 153.25468 26626 ft 489 kts 15°
2026-05-04 04:27 -29.27689 153.26895 26109 ft 488 kts 15°
2026-05-04 04:27 -29.24544 153.28313 25593 ft 485 kts 15°
2026-05-04 04:27 -29.21416 153.29726 25071 ft 482 kts 16°
2026-05-04 04:27 -29.18302 153.31126 24552 ft 478 kts 16°
2026-05-04 04:28 -29.15217 153.32509 24023 ft 475 kts 16°
2026-05-04 04:28 -29.12147 153.33884 23437 ft 471 kts 17°
2026-05-04 04:28 -29.09108 153.35245 22884 ft 467 kts 17°
2026-05-04 04:28 -29.06095 153.36591 22334 ft 463 kts 17°
2026-05-04 04:29 -29.03106 153.37929 21780 ft 459 kts 17°
2026-05-04 04:29 -29.00148 153.39253 21230 ft 455 kts 17°
2026-05-04 04:29 -28.97210 153.40564 20676 ft 451 kts 17°
2026-05-04 04:29 -28.94299 153.41861 20125 ft 447 kts 17°
2026-05-04 04:30 -28.91418 153.43144 19576 ft 443 kts 17°
2026-05-04 04:30 -28.88555 153.44418 19029 ft 439 kts 17°
2026-05-04 04:30 -28.85721 153.45678 18498 ft 436 kts 18°
2026-05-04 04:30 -28.82909 153.46929 17899 ft 432 kts 18°
2026-05-04 04:31 -28.80114 153.48169 17360 ft 429 kts 18°
2026-05-04 04:31 -28.77344 153.49400 16811 ft 426 kts 18°
2026-05-04 04:31 -28.74626 153.50610 16275 ft 423 kts 18°
2026-05-04 04:31 -28.71888 153.51828 15737 ft 421 kts 18°
2026-05-04 04:32 -28.69168 153.53038 15199 ft 418 kts 18°
2026-05-04 04:32 -28.66470 153.54239 14665 ft 414 kts 18°
2026-05-04 04:32 -28.63793 153.55428 14138 ft 412 kts 18°
2026-05-04 04:32 -28.61134 153.56605 13581 ft 409 kts 19°
2026-05-04 04:33 -28.58494 153.57772 13055 ft 405 kts 19°
2026-05-04 04:33 -28.55874 153.58929 12535 ft 402 kts 19°
2026-05-04 04:33 -28.53277 153.60078 12024 ft 398 kts 19°
2026-05-04 04:33 -28.50697 153.61181 11511 ft 395 kts 18°
2026-05-04 04:34 -28.48113 153.62197 11024 ft 392 kts 17°
2026-05-04 04:34 -28.45530 153.63157 10528 ft 388 kts 17°
2026-05-04 04:34 -28.42971 153.64086 10073 ft 383 kts 17°
2026-05-04 04:34 -28.40430 153.65008 9923 ft 385 kts 17°
2026-05-04 04:35 -28.37893 153.65934 9429 ft 377 kts 17°
2026-05-04 04:35 -28.35484 153.66806 9246 ft 347 kts 17°
2026-05-04 04:35 -28.33307 153.67591 9090 ft 320 kts 17°
2026-05-04 04:35 -28.31265 153.68326 8926 ft 297 kts 17°
2026-05-04 04:36 -28.29294 153.68813 8456 ft 287 kts
2026-05-04 04:36 -28.27324 153.68627 7900 ft 283 kts 346°
2026-05-04 04:36 -28.25496 153.67829 7268 ft 283 kts 335°
2026-05-04 04:36 -28.23726 153.66849 6661 ft 282 kts 335°
2026-05-04 04:37 -28.18465 153.63928 4990 ft 271 kts 335°
2026-05-04 04:37 -28.16826 153.63015 4838 ft 253 kts 335°
2026-05-04 04:38 -28.15319 153.62137 4726 ft 236 kts 328°
2026-05-04 04:38 -28.14015 153.61014 4429 ft 236 kts 322°
2026-05-04 04:38 -28.12736 153.59851 4110 ft 235 kts 322°
2026-05-04 04:38 -28.11462 153.58686 3811 ft 235 kts 322°
2026-05-04 04:39 -28.10188 153.57518 3511 ft 236 kts 323°
2026-05-04 04:39 -28.08917 153.56325 3195 ft 239 kts 317°
2026-05-04 04:39 -28.07899 153.54840 2889 ft 240 kts 300°
2026-05-04 04:39 -28.07298 153.53074 2564 ft 242 kts 282°
2026-05-04 04:40 -28.07163 153.51191 2236 ft 235 kts 265°
2026-05-04 04:40 -28.07484 153.49468 1945 ft 215 kts 243°
2026-05-04 04:40 -28.08337 153.48165 1663 ft 202 kts 217°
2026-05-04 04:40 -28.09522 153.47437 1414 ft 184 kts 192°
2026-05-04 04:41 -28.10700 153.47301 1205 ft 157 kts 172°
2026-05-04 04:41 -28.11706 153.47583 975 ft 143 kts 154°
2026-05-04 04:41 -28.12567 153.48110 770 ft 139 kts 149°
2026-05-04 04:41 -28.13414 153.48645 589 ft 139 kts 150°
2026-05-04 04:42 -28.14238 153.49170 417 ft 137 kts 145°
2026-05-04 04:42 -28.15070 153.49701 229 ft 138 kts 148°
2026-05-04 04:42 -28.15907 153.50235 40 ft 136 kts 147°
2026-05-04 04:42 -28.16631 153.50697 28 ft 95 kts 150°
2026-05-04 04:43 -28.16932 153.50889 29 ft 15 kts 134°
2026-05-04 04:43 -28.16918 153.51008 26 ft 18 kts 59°
2026-05-04 04:43 -28.16849 153.51129 28 ft 13 kts 37°
2026-05-04 04:43 -28.16794 153.51120 28 ft 0 kts 332°
2026-05-04 04:44 -28.16777 153.51108 29 ft 7 kts 330°
2026-05-04 04:44 -28.16757 153.51095 29 ft 0 kts 329°
2026-05-04 04:47 -28.16696 153.51165 29 ft 0 kts 60°